Simultaneous Nadir Overpasses (SNOs) Predictions

Prediction of SNOs between GOES-17 and METOP-C Satellite Orbit:

Table of predicted SNOs for the next 14.0 days since TLE Epoch: 5/9/2025
Index Date Time (GOES-17) GOES-17 Lat,Lon METOP-C Lat,Lon Distance(km) Time Diff (sec)
1 05/10/2025 16:37:48 0.03,-104.46 0.59,-107.03 292.56 80
2 05/11/2025 16:19:49 0.03,-104.47 -0.52,-102.03 277.36 80
3 05/13/2025 04:38:50 -0.03,-104.42 -0.51,-106.63 252.07 80
4 05/14/2025 04:15:32 -0.02,-104.42 0.60,-101.64 317.54 80
5 05/15/2025 16:34:25 0.02,-104.50 0.43,-106.20 194.68 80
6 05/16/2025 16:16:28 0.01,-104.51 -0.75,-101.22 374.92 80
7 05/18/2025 04:35:28 -0.01,-104.45 -0.33,-105.81 154.82 80
8 05/19/2025 04:12:10 -0.00,-104.46 0.79,-100.81 414.73 80
9 05/20/2025 16:31:04 -0.00,-104.53 0.17,-105.39 97.38 80
10 05/21/2025 16:13:05 -0.00,-104.54 -0.96,-100.40 472.51 80
11 05/23/2025 04:32:06 0.00,-104.49 -0.12,-104.99 56.67 80
